Regional Weather Roundup
Issued by NWS

Home | Current Version | Previous Version | Graphics & Text | Print | Product List | Glossary On
Versions: 1 2 3 4 5 6 7 8 9 10 11 12 13 14 15 16 17 18 19 20 21 22 23 24 25 26 27 28 29 30 31 32 33 34 35 36 37 38 39 40 41 42 43 44 45 46 47 48 49 50
000
ASUS43 KLSX 291410
RWRMO

WEATHER SUMMARY FOR MISSOURI
NATIONAL WEATHER SERVICE SPRINGFIELD MO
900 AM CDT FRI APR 29 2016

NOTE: "FAIR" INDICATES FEW OR NO CLOUDS BELOW 12,000 FEET WITH NO
       SIGNIFICANT WEATHER AND/OR OBSTRUCTIONS TO VISIBILITY.
       CURRENT SKY AND/OR WEATHER CONDITIONS ARE NOT AVAILABLE FOR
       CHILLICOTHE AND FARMINGTON.

MOZ001>031-035>038-043-044-053-054-291500-
...NORTHERN AND WESTERN MISSOURI...

CITY           SKY/WX    TMP DP  RH WIND       PRES   REMARKS
KANSAS CTY INT CLOUDY    49  43  80 NE10      30.06R
KANSAS C DTWN  CLOUDY    51  44  77 NE10      30.06S
LEE`S SUMMIT   CLOUDY    50  44  80 NE13      30.06R
ST JOSEPH      CLOUDY    48  42  80 NE14      30.07F
CHILLICOTHE      N/A     51  45  79 VRB7      30.10R
KIRKSVILLE     CLOUDY    50  46  86 NE8       30.10R

$$
MOZ066>068-077>081-088>096-101>105-291500-
...SOUTHWEST MISSOURI...

CITY           SKY/WX    TMP DP  RH WIND       PRES   REMARKS
SPRINGFIELD    LGT RAIN  53  47  79 NE9       29.97S
JOPLIN         LGT RAIN  52  48  86 E10       29.95F
BRANSON        TSTM      54  50  87 E7        30.02R

$$
MOZ032>034-039>042-045>050-055>058-069>072-291500-
...CENTRAL MISSOURI...

CITY           SKY/WX    TMP DP  RH WIND       PRES   REMARKS
COLUMBIA       CLOUDY    53  48  83 E8        30.04F
JEFFERSON CITY CLOUDY    53  47  79 E8        30.04F
ROLLA          CLOUDY    51  47  86 E8        30.01F
SEDALIA        CLOUDY    52  47  83 E8        30.06S
WHITEMAN AFB   PTSUNNY   51  49  92 E7        30.05S
WARRENSBURG    CLOUDY    50  45  81 NE10      30.06S
OSAGE BEACH    CLOUDY    52  41  66 NE7       30.03F

$$
MOZ051-052-059>065-291500-
...EAST CENTRAL MISSOURI...

CITY           SKY/WX    TMP DP  RH WIND       PRES   REMARKS
ST LOUIS INTL  CLOUDY    57  48  72 NE7       30.05F
SPIRIT OF STL  CLOUDY    57  50  77 NE7       30.03F
ST CHARLES     CLOUDY    56  50  80 NE8       30.06S

$$
MOZ072>076-082>087-097>100-106>115-291500-
...SOUTH CENTRAL AND SOUTHEAST MISSOURI...

CITY           SKY/WX    TMP DP  RH WIND       PRES   REMARKS
CAPE GIRARDEAU CLOUDY    60  51  72 E7        30.01F
FARMINGTON     CLOUDY    55  49  80 NE7       30.03F
POPLAR BLUFF   CLOUDY    58  50  75 NE8       30.01S
WEST PLAINS    CLOUDY    54  46  74 NE9       30.01F

$$



USA.gov is the U.S. government's official web portal to all federal, state and local government web resources and services.